TimeCST,TemperatureF,Dew PointF,Humidity,Sea Level PressureIn,VisibilityMPH,Wind Direction,Wind SpeedMPH,Gust SpeedMPH,PrecipitationIn,Events,Conditions,WindDirDegrees,DateUTC
12:15 AM,43.7,40.5,88,30.36,10.0,NNW,6.9,-,N/A,,Clear,330,2013-11-07 06:15:00
12:35 AM,43.7,40.5,88,30.36,10.0,NW,4.6,-,N/A,,Clear,320,2013-11-07 06:35:00
12:55 AM,43.7,40.5,88,30.36,10.0,NNW,5.8,-,N/A,,Clear,330,2013-11-07 06:55:00
1:15 AM,43.2,40.3,90,30.36,10.0,NW,4.6,-,N/A,,Clear,320,2013-11-07 07:15:00
1:35 AM,43.2,40.1,89,30.36,10.0,NW,3.5,-,N/A,,Clear,320,2013-11-07 07:35:00
1:55 AM,43.0,39.9,89,30.36,10.0,NNW,5.8,-,N/A,,Clear,330,2013-11-07 07:55:00
2:15 AM,42.6,39.6,89,30.36,10.0,NNW,5.8,-,N/A,,Clear,330,2013-11-07 08:15:00
2:35 AM,41.9,39.4,91,30.36,10.0,NNW,3.5,-,N/A,,Clear,340,2013-11-07 08:35:00
2:55 AM,41.9,39.2,90,30.36,10.0,Calm,Calm,-,N/A,,Clear,0,2013-11-07 08:55:00
3:15 AM,42.1,39.4,90,30.36,10.0,Calm,Calm,-,N/A,,Clear,0,2013-11-07 09:15:00
3:35 AM,41.9,39.4,91,30.37,10.0,NNW,3.5,-,N/A,,Clear,330,2013-11-07 09:35:00
3:55 AM,41.2,39.0,92,30.38,10.0,Calm,Calm,-,N/A,,Clear,0,2013-11-07 09:55:00
4:15 AM,41.0,39.2,93,30.39,10.0,WNW,3.5,-,N/A,,Clear,290,2013-11-07 10:15:00
4:35 AM,40.8,38.7,92,30.40,10.0,WNW,3.5,-,N/A,,Clear,290,2013-11-07 10:35:00
4:55 AM,40.3,38.3,93,30.40,10.0,Calm,Calm,-,N/A,,Clear,0,2013-11-07 10:55:00
5:15 AM,40.6,38.8,93,30.40,10.0,Calm,Calm,-,N/A,,Clear,0,2013-11-07 11:15:00
5:35 AM,40.8,38.5,91,30.41,10.0,NNW,3.5,-,N/A,,Clear,340,2013-11-07 11:35:00
5:55 AM,40.1,37.9,92,30.42,10.0,NW,4.6,-,N/A,,Clear,320,2013-11-07 11:55:00
6:15 AM,40.1,38.3,93,30.42,10.0,NNW,4.6,-,N/A,,Clear,330,2013-11-07 12:15:00
6:35 AM,40.6,38.3,91,30.43,10.0,NNW,4.6,-,N/A,,Clear,330,2013-11-07 12:35:00
6:55 AM,40.5,38.3,92,30.43,10.0,NNW,4.6,-,N/A,,Clear,330,2013-11-07 12:55:00
7:15 AM,41.2,38.7,91,30.44,10.0,NW,3.5,-,N/A,,Clear,310,2013-11-07 13:15:00
7:35 AM,42.8,40.1,90,30.46,10.0,WNW,3.5,-,N/A,,Clear,300,2013-11-07 13:35:00
7:55 AM,42.8,40.6,92,30.46,10.0,WNW,3.5,-,N/A,,Clear,290,2013-11-07 13:55:00
8:15 AM,44.8,42.4,91,30.47,10.0,WNW,3.5,-,N/A,,Clear,300,2013-11-07 14:15:00
8:35 AM,46.9,43.5,88,30.48,10.0,WNW,4.6,-,N/A,,Clear,290,2013-11-07 14:35:00
8:55 AM,48.7,43.7,83,30.48,10.0,WNW,3.5,-,N/A,,Clear,290,2013-11-07 14:55:00
9:15 AM,51.3,43.0,73,30.48,10.0,NW,4.6,-,N/A,,Clear,320,2013-11-07 15:15:00
9:35 AM,52.3,43.2,71,30.48,10.0,Calm,Calm,-,N/A,,Clear,0,2013-11-07 15:35:00
9:55 AM,54.0,43.0,66,30.48,10.0,NW,3.5,-,N/A,,Clear,320,2013-11-07 15:55:00
10:15 AM,54.7,43.7,66,30.48,10.0,WNW,3.5,-,N/A,,Clear,300,2013-11-07 16:15:00
10:35 AM,56.1,43.7,63,30.48,10.0,NW,5.8,-,N/A,,Clear,310,2013-11-07 16:35:00
10:55 AM,56.7,43.7,62,30.48,10.0,West,5.8,-,N/A,,Clear,280,2013-11-07 16:55:00
11:15 AM,57.4,43.7,60,30.47,10.0,WNW,3.5,-,N/A,,Clear,300,2013-11-07 17:15:00
11:35 AM,58.1,43.2,58,30.47,10.0,WSW,5.8,-,N/A,,Clear,250,2013-11-07 17:35:00
11:55 AM,60.1,44.1,55,30.46,10.0,WSW,3.5,-,N/A,,Clear,240,2013-11-07 17:55:00
12:15 PM,61.0,44.8,55,30.45,10.0,West,5.8,-,N/A,,Clear,280,2013-11-07 18:15:00
12:35 PM,62.8,44.6,51,30.44,10.0,NW,5.8,-,N/A,,Clear,320,2013-11-07 18:35:00
12:55 PM,62.8,44.4,51,30.43,10.0,West,4.6,-,N/A,,Clear,280,2013-11-07 18:55:00
1:15 PM,62.6,43.9,50,30.42,10.0,West,6.9,-,N/A,,Clear,280,2013-11-07 19:15:00
1:35 PM,63.0,44.1,50,30.41,10.0,WNW,4.6,-,N/A,,Clear,300,2013-11-07 19:35:00
1:55 PM,63.5,43.2,47,30.41,10.0,WNW,4.6,-,N/A,,Clear,300,2013-11-07 19:55:00
2:15 PM,63.5,43.7,48,30.41,10.0,West,5.8,-,N/A,,Clear,280,2013-11-07 20:15:00
2:35 PM,63.1,43.3,48,30.40,10.0,West,6.9,-,N/A,,Clear,270,2013-11-07 20:35:00
2:55 PM,64.4,43.7,47,30.39,10.0,West,5.8,-,N/A,,Clear,270,2013-11-07 20:55:00
3:15 PM,64.6,43.3,46,30.39,10.0,WNW,4.6,-,N/A,,Clear,300,2013-11-07 21:15:00
3:35 PM,64.2,43.3,47,30.39,10.0,West,3.5,-,N/A,,Clear,260,2013-11-07 21:35:00
3:55 PM,64.4,42.6,45,30.39,10.0,WNW,4.6,-,N/A,,Clear,290,2013-11-07 21:55:00
4:55 PM,60.3,43.9,55,30.39,10.0,West,4.6,-,N/A,,Clear,260,2013-11-07 22:55:00
5:15 PM,59.2,43.9,57,30.39,10.0,SW,3.5,-,N/A,,Clear,220,2013-11-07 23:15:00
5:35 PM,59.2,43.2,55,30.39,10.0,WSW,3.5,-,N/A,,Clear,240,2013-11-07 23:35:00
5:55 PM,58.6,42.8,56,30.40,10.0,SW,4.6,-,N/A,,Clear,230,2013-11-07 23:55:00
6:15 PM,57.6,42.8,58,30.40,10.0,SW,3.5,-,N/A,,Clear,230,2013-11-08 00:15:00
6:35 PM,55.9,43.3,63,30.40,10.0,WSW,4.6,-,N/A,,Clear,240,2013-11-08 00:35:00
6:55 PM,56.1,43.2,62,30.40,10.0,WSW,3.5,-,N/A,,Clear,240,2013-11-08 00:55:00
7:15 PM,56.7,42.3,59,30.40,10.0,WSW,4.6,-,N/A,,Clear,250,2013-11-08 01:15:00
7:35 PM,56.7,41.9,58,30.40,10.0,West,3.5,-,N/A,,Clear,260,2013-11-08 01:35:00
7:55 PM,55.9,42.1,60,30.39,10.0,West,3.5,-,N/A,,Clear,260,2013-11-08 01:55:00
8:15 PM,55.8,42.4,61,30.39,10.0,West,4.6,-,N/A,,Clear,260,2013-11-08 02:15:00
8:35 PM,55.6,42.8,62,30.40,10.0,West,4.6,-,N/A,,Clear,260,2013-11-08 02:35:00
8:55 PM,55.4,42.6,62,30.39,10.0,West,4.6,-,N/A,,Clear,270,2013-11-08 02:55:00
9:15 PM,54.9,42.8,64,30.39,10.0,West,3.5,-,N/A,,Clear,280,2013-11-08 03:15:00
9:35 PM,54.9,42.8,64,30.39,10.0,WNW,5.8,-,N/A,,Clear,290,2013-11-08 03:35:00
9:55 PM,54.1,43.0,66,30.38,10.0,WNW,5.8,-,N/A,,Clear,290,2013-11-08 03:55:00
10:15 PM,54.5,42.8,65,30.39,10.0,WNW,4.6,-,N/A,,Clear,290,2013-11-08 04:15:00
10:35 PM,53.6,43.0,67,30.38,10.0,NW,3.5,-,N/A,,Clear,310,2013-11-08 04:35:00
10:55 PM,51.4,43.0,73,30.38,10.0,Calm,Calm,-,N/A,,Clear,0,2013-11-08 04:55:00
11:15 PM,50.9,43.2,75,30.37,10.0,Calm,Calm,-,N/A,,Clear,0,2013-11-08 05:15:00
11:35 PM,50.7,43.2,75,30.37,10.0,Calm,Calm,-,N/A,,Clear,0,2013-11-08 05:35:00
11:55 PM,50.0,43.3,78,30.37,10.0,Calm,Calm,-,N/A,,Clear,0,2013-11-08 05:55:00